Year,Month,Day,Hour,Minute,Value (Times are PST for windgust in km/hr)
2008,10,07,00,00,17.70
2008,10,07,00,01,16.10
2008,10,07,00,02,25.70
2008,10,07,00,03,16.10
2008,10,07,00,04,20.90
2008,10,07,00,05,24.20
2008,10,07,00,06,20.90
2008,10,07,00,07,16.10
2008,10,07,00,08,16.10
2008,10,07,00,09,16.10
2008,10,07,00,10,14.50
2008,10,07,00,11,11.30
2008,10,07,00,12,9.60
2008,10,07,00,13,11.30
2008,10,07,00,14,8.10
2008,10,07,00,15,6.40
2008,10,07,00,16,4.80
2008,10,07,00,17,11.30
2008,10,07,00,18,9.60
2008,10,07,00,19,11.30
2008,10,07,00,20,16.10
2008,10,07,00,21,14.50
2008,10,07,00,22,17.70
2008,10,07,00,23,24.20
2008,10,07,00,24,20.90
2008,10,07,00,25,24.20
2008,10,07,00,26,37.00
2008,10,07,00,27,45.10
2008,10,07,00,28,30.60
2008,10,07,00,29,25.70
2008,10,07,00,30,45.10
2008,10,07,00,31,49.90
2008,10,07,00,32,51.50
2008,10,07,00,33,51.50
2008,10,07,00,34,41.80
2008,10,07,00,35,37.00
2008,10,07,00,36,40.20
2008,10,07,00,37,38.60
2008,10,07,00,38,53.10
2008,10,07,00,39,49.90
2008,10,07,00,40,35.40
2008,10,07,00,41,33.80
2008,10,07,00,42,46.70
2008,10,07,00,43,35.40
2008,10,07,00,44,38.60
2008,10,07,00,45,33.80
2008,10,07,00,46,30.60
2008,10,07,00,47,41.80
2008,10,07,00,48,32.20
2008,10,07,00,49,30.60
2008,10,07,00,50,35.40
2008,10,07,00,51,41.80
2008,10,07,00,52,32.20
2008,10,07,00,53,37.00
2008,10,07,00,54,46.70
2008,10,07,00,55,35.40
2008,10,07,00,56,37.00
2008,10,07,00,57,45.10
2008,10,07,00,58,45.10
2008,10,07,00,59,41.80
2008,10,07,01,00,38.60
2008,10,07,01,01,40.20
2008,10,07,01,02,29.00
2008,10,07,01,03,46.70
2008,10,07,01,04,41.80
2008,10,07,01,05,40.20
2008,10,07,01,06,41.80
2008,10,07,01,07,40.20
2008,10,07,01,08,35.40
2008,10,07,01,09,33.80
2008,10,07,01,10,30.60
2008,10,07,01,11,37.00
2008,10,07,01,12,45.10
2008,10,07,01,13,40.20
2008,10,07,01,14,37.00
2008,10,07,01,15,29.00
2008,10,07,01,16,56.30
2008,10,07,01,17,35.40
2008,10,07,01,18,41.80
2008,10,07,01,19,43.50
2008,10,07,01,20,33.80
2008,10,07,01,21,27.40
2008,10,07,01,22,48.30
2008,10,07,01,23,40.20
2008,10,07,01,24,35.40
2008,10,07,01,25,37.00
2008,10,07,01,26,57.90
2008,10,07,01,27,41.80
2008,10,07,01,28,41.80
2008,10,07,01,29,48.30
2008,10,07,01,30,41.80
2008,10,07,01,31,48.30
2008,10,07,01,32,56.30
2008,10,07,01,33,48.30
2008,10,07,01,34,53.10
2008,10,07,01,35,38.60
2008,10,07,01,36,40.20
2008,10,07,01,37,53.10
2008,10,07,01,38,46.70
2008,10,07,01,39,53.10
2008,10,07,01,40,46.70
2008,10,07,01,41,56.30
2008,10,07,01,42,62.70
2008,10,07,01,43,48.30
2008,10,07,01,44,46.70
2008,10,07,01,45,45.10
2008,10,07,01,46,37.00
2008,10,07,01,47,48.30
2008,10,07,01,48,54.70
2008,10,07,01,49,46.70
2008,10,07,01,50,40.20
2008,10,07,01,51,46.70
2008,10,07,01,52,46.70
2008,10,07,01,53,56.30
2008,10,07,01,54,51.50
2008,10,07,01,55,57.90
2008,10,07,01,56,53.10
2008,10,07,01,57,57.90
2008,10,07,01,58,49.90
2008,10,07,01,59,53.10
2008,10,07,02,00,59.50
2008,10,07,02,01,49.90
2008,10,07,02,02,56.30
2008,10,07,02,03,57.90
2008,10,07,02,04,70.80
2008,10,07,02,05,48.30
2008,10,07,02,06,66.00
2008,10,07,02,07,49.90
2008,10,07,02,08,46.70
2008,10,07,02,09,46.70
2008,10,07,02,10,38.60
2008,10,07,02,11,37.00
2008,10,07,02,12,64.40
2008,10,07,02,13,62.70
2008,10,07,02,14,54.70
2008,10,07,02,15,54.70
2008,10,07,02,16,49.90
2008,10,07,02,17,53.10
2008,10,07,02,18,45.10
2008,10,07,02,19,51.50
2008,10,07,02,20,51.50
2008,10,07,02,21,53.10
2008,10,07,02,22,45.10
2008,10,07,02,23,49.90
2008,10,07,02,24,54.70
2008,10,07,02,25,64.40
2008,10,07,02,26,57.90
2008,10,07,02,27,49.90
2008,10,07,02,28,40.20
2008,10,07,02,29,53.10
2008,10,07,02,30,69.20
2008,10,07,02,31,41.80
2008,10,07,02,32,46.70
2008,10,07,02,33,43.50
2008,10,07,02,34,56.30
2008,10,07,02,35,54.70
2008,10,07,02,36,53.10
2008,10,07,02,37,53.10
2008,10,07,02,38,46.70
2008,10,07,02,39,38.60
2008,10,07,02,40,53.10
2008,10,07,02,41,45.10
2008,10,07,02,42,49.90
2008,10,07,02,43,37.00
2008,10,07,02,44,53.10
2008,10,07,02,45,59.50
2008,10,07,02,46,33.80
2008,10,07,02,47,48.30
2008,10,07,02,48,45.10
2008,10,07,02,49,59.50
2008,10,07,02,50,57.90
2008,10,07,02,51,57.90
2008,10,07,02,52,49.90
2008,10,07,02,53,54.70
2008,10,07,02,54,49.90
2008,10,07,02,55,56.30
2008,10,07,02,56,48.30
2008,10,07,02,57,48.30
2008,10,07,02,58,56.30
2008,10,07,02,59,61.20
2008,10,07,03,00,54.70
2008,10,07,03,01,40.20
2008,10,07,03,02,51.50
2008,10,07,03,03,54.70
2008,10,07,03,04,64.40
2008,10,07,03,05,64.40
2008,10,07,03,06,56.30
2008,10,07,03,07,46.70
2008,10,07,03,08,43.50
2008,10,07,03,09,59.50
2008,10,07,03,10,51.50
2008,10,07,03,11,53.10
2008,10,07,03,12,64.40
2008,10,07,03,13,53.10
2008,10,07,03,14,59.50
2008,10,07,03,15,53.10
2008,10,07,03,16,54.70
2008,10,07,03,17,54.70
2008,10,07,03,18,53.10
2008,10,07,03,19,61.20
2008,10,07,03,20,53.10
2008,10,07,03,21,35.40
2008,10,07,03,22,30.60
2008,10,07,03,23,38.60
2008,10,07,03,24,56.30
2008,10,07,03,25,49.90
2008,10,07,03,26,51.50
2008,10,07,03,27,51.50
2008,10,07,03,28,53.10
2008,10,07,03,29,46.70
2008,10,07,03,30,30.60
2008,10,07,03,31,46.70
2008,10,07,03,32,38.60
2008,10,07,03,33,62.70
2008,10,07,03,34,56.30
2008,10,07,03,35,43.50
2008,10,07,03,36,46.70
2008,10,07,03,37,49.90
2008,10,07,03,38,51.50
2008,10,07,03,39,53.10
2008,10,07,03,40,59.50
2008,10,07,03,41,54.70
2008,10,07,03,42,43.50
2008,10,07,03,43,40.20
2008,10,07,03,44,40.20
2008,10,07,03,45,46.70
2008,10,07,03,46,51.50
2008,10,07,03,47,48.30
2008,10,07,03,48,48.30
2008,10,07,03,49,38.60
2008,10,07,03,50,49.90
2008,10,07,03,51,38.60
2008,10,07,03,52,48.30
2008,10,07,03,53,45.10
2008,10,07,03,54,46.70
2008,10,07,03,55,48.30
2008,10,07,03,56,49.90
2008,10,07,03,57,33.80
2008,10,07,03,58,49.90
2008,10,07,03,59,41.80
2008,10,07,04,00,35.40
2008,10,07,04,01,46.70
2008,10,07,04,02,46.70
2008,10,07,04,03,37.00
2008,10,07,04,04,41.80
2008,10,07,04,05,53.10
2008,10,07,04,06,53.10
2008,10,07,04,07,45.10
2008,10,07,04,08,45.10
2008,10,07,04,09,48.30
2008,10,07,04,10,48.30
2008,10,07,04,11,41.80
2008,10,07,04,12,38.60
2008,10,07,04,13,45.10
2008,10,07,04,14,43.50
2008,10,07,04,15,46.70
2008,10,07,04,16,43.50
2008,10,07,04,17,45.10
2008,10,07,04,18,51.50
2008,10,07,04,19,46.70
2008,10,07,04,20,62.70
2008,10,07,04,21,41.80
2008,10,07,04,22,38.60
2008,10,07,04,23,64.40
2008,10,07,04,24,51.50
2008,10,07,04,25,49.90
2008,10,07,04,26,43.50
2008,10,07,04,27,46.70
2008,10,07,04,28,41.80
2008,10,07,04,29,35.40
2008,10,07,04,30,54.70
2008,10,07,04,31,45.10
2008,10,07,04,32,56.30
2008,10,07,04,33,48.30
2008,10,07,04,34,49.90
2008,10,07,04,35,53.10
2008,10,07,04,36,45.10
2008,10,07,04,37,64.40
2008,10,07,04,38,62.70
2008,10,07,04,39,66.00
2008,10,07,04,40,54.70
2008,10,07,04,41,54.70
2008,10,07,04,42,57.90
2008,10,07,04,43,54.70
2008,10,07,04,44,57.90
2008,10,07,04,45,57.90
2008,10,07,04,46,53.10
2008,10,07,04,47,53.10
2008,10,07,04,48,53.10
2008,10,07,04,49,53.10
2008,10,07,04,50,49.90
2008,10,07,04,51,35.40
2008,10,07,04,52,46.70
2008,10,07,04,53,49.90
2008,10,07,04,54,51.50
2008,10,07,04,55,49.90
2008,10,07,04,56,41.80
2008,10,07,04,57,49.90
2008,10,07,04,58,49.90
2008,10,07,04,59,59.50
2008,10,07,05,00,53.10
2008,10,07,05,01,54.70
2008,10,07,05,02,56.30
2008,10,07,05,03,57.90
2008,10,07,05,04,57.90
2008,10,07,05,05,66.00
2008,10,07,05,06,41.80
2008,10,07,05,07,48.30
2008,10,07,05,08,54.70
2008,10,07,05,09,51.50
2008,10,07,05,10,49.90
2008,10,07,05,11,51.50
2008,10,07,05,12,49.90
2008,10,07,05,13,51.50
2008,10,07,05,14,46.70
2008,10,07,05,15,54.70
2008,10,07,05,16,53.10
2008,10,07,05,17,49.90
2008,10,07,05,18,59.50
2008,10,07,05,19,49.90
2008,10,07,05,20,57.90
2008,10,07,05,21,48.30
2008,10,07,05,22,67.60
2008,10,07,05,23,62.70
2008,10,07,05,24,48.30
2008,10,07,05,25,57.90
2008,10,07,05,26,53.10
2008,10,07,05,27,57.90
2008,10,07,05,28,56.30
2008,10,07,05,29,56.30
2008,10,07,05,30,53.10
2008,10,07,05,31,48.30
2008,10,07,05,32,40.20
2008,10,07,05,33,43.50
2008,10,07,05,34,53.10
2008,10,07,05,35,51.50
2008,10,07,05,36,51.50
2008,10,07,05,37,48.30
2008,10,07,05,38,48.30
2008,10,07,05,39,46.70
2008,10,07,05,40,45.10
2008,10,07,05,41,53.10
2008,10,07,05,42,43.50
2008,10,07,05,43,40.20
2008,10,07,05,44,46.70
2008,10,07,05,45,48.30
2008,10,07,05,46,33.80
2008,10,07,05,47,38.60
2008,10,07,05,48,38.60
2008,10,07,05,49,48.30
2008,10,07,05,50,38.60
2008,10,07,05,51,38.60
2008,10,07,05,52,59.50
2008,10,07,05,53,54.70
2008,10,07,05,54,59.50
2008,10,07,05,55,51.50
2008,10,07,05,56,53.10
2008,10,07,05,57,48.30
2008,10,07,05,58,53.10
2008,10,07,05,59,32.20
2008,10,07,06,00,40.20
2008,10,07,06,01,38.60
2008,10,07,06,02,43.50
2008,10,07,06,03,43.50
2008,10,07,06,04,46.70
2008,10,07,06,05,32.20
2008,10,07,06,06,49.90
2008,10,07,06,07,38.60
2008,10,07,06,08,46.70
2008,10,07,06,09,41.80
2008,10,07,06,10,33.80
2008,10,07,06,11,37.00
2008,10,07,06,12,40.20
2008,10,07,06,13,38.60
2008,10,07,06,14,30.60
2008,10,07,06,15,33.80
2008,10,07,06,16,38.60
2008,10,07,06,17,46.70
2008,10,07,06,18,30.60
2008,10,07,06,19,53.10
2008,10,07,06,20,43.50
2008,10,07,06,21,40.20
2008,10,07,06,22,54.70
2008,10,07,06,23,46.70
2008,10,07,06,24,49.90
2008,10,07,06,25,53.10
2008,10,07,06,26,57.90
2008,10,07,06,27,53.10
2008,10,07,06,28,48.30
2008,10,07,06,29,40.20
2008,10,07,06,30,48.30
2008,10,07,06,31,43.50
2008,10,07,06,32,35.40
2008,10,07,06,33,43.50
2008,10,07,06,34,59.50
2008,10,07,06,35,49.90
2008,10,07,06,36,49.90
2008,10,07,06,37,49.90
2008,10,07,06,38,51.50
2008,10,07,06,39,51.50
2008,10,07,06,40,48.30
2008,10,07,06,41,43.50
2008,10,07,06,42,43.50
2008,10,07,06,43,46.70
2008,10,07,06,44,40.20
2008,10,07,06,45,41.80
2008,10,07,06,46,48.30
2008,10,07,06,47,53.10
2008,10,07,06,48,61.20
2008,10,07,06,49,53.10
2008,10,07,06,50,46.70
2008,10,07,06,51,49.90
2008,10,07,06,52,43.50
2008,10,07,06,53,45.10
2008,10,07,06,54,40.20
2008,10,07,06,55,40.20
2008,10,07,06,56,45.10
2008,10,07,06,57,37.00
2008,10,07,06,58,46.70
2008,10,07,06,59,49.90
2008,10,07,07,00,48.30
2008,10,07,07,01,56.30
2008,10,07,07,02,57.90
2008,10,07,07,03,45.10
2008,10,07,07,04,48.30
2008,10,07,07,05,49.90
2008,10,07,07,06,38.60
2008,10,07,07,07,51.50
2008,10,07,07,08,51.50
2008,10,07,07,09,45.10
2008,10,07,07,10,40.20
2008,10,07,07,11,40.20
2008,10,07,07,12,51.50
2008,10,07,07,13,43.50
2008,10,07,07,14,41.80
2008,10,07,07,15,45.10
2008,10,07,07,16,40.20
2008,10,07,07,17,43.50
2008,10,07,07,18,35.40
2008,10,07,07,19,27.40
2008,10,07,07,20,37.00
2008,10,07,07,21,35.40
2008,10,07,07,22,37.00
2008,10,07,07,23,43.50
2008,10,07,07,24,37.00
2008,10,07,07,25,41.80
2008,10,07,07,26,37.00
2008,10,07,07,27,41.80
2008,10,07,07,28,35.40
2008,10,07,07,29,30.60
2008,10,07,07,30,40.20
2008,10,07,07,31,45.10
2008,10,07,07,32,45.10
2008,10,07,07,33,43.50
2008,10,07,07,34,37.00
2008,10,07,07,35,32.20
2008,10,07,07,36,32.20
2008,10,07,07,37,37.00
2008,10,07,07,38,46.70
2008,10,07,07,39,43.50
2008,10,07,07,40,38.60
2008,10,07,07,41,30.60
2008,10,07,07,42,38.60
2008,10,07,07,43,29.00
2008,10,07,07,44,38.60
2008,10,07,07,45,32.20
2008,10,07,07,46,33.80
2008,10,07,07,47,37.00
2008,10,07,07,48,43.50
2008,10,07,07,49,37.00
2008,10,07,07,50,30.60
2008,10,07,07,51,32.20
2008,10,07,07,52,32.20
2008,10,07,07,53,38.60
2008,10,07,07,54,45.10
2008,10,07,07,55,41.80
2008,10,07,07,56,43.50
2008,10,07,07,57,32.20
2008,10,07,07,58,35.40
2008,10,07,07,59,37.00
2008,10,07,08,00,32.20
2008,10,07,08,01,30.60
2008,10,07,08,02,25.70
2008,10,07,08,03,33.80
2008,10,07,08,04,32.20
2008,10,07,08,05,27.40
2008,10,07,08,06,24.20
2008,10,07,08,07,29.00
2008,10,07,08,08,32.20
2008,10,07,08,09,33.80
2008,10,07,08,10,33.80
2008,10,07,08,11,29.00
2008,10,07,08,12,30.60
2008,10,07,08,13,20.90
2008,10,07,08,14,33.80
2008,10,07,08,15,35.40
2008,10,07,08,16,27.40
2008,10,07,08,17,33.80
2008,10,07,08,18,38.60
2008,10,07,08,19,25.70
2008,10,07,08,20,27.40
2008,10,07,08,21,32.20
2008,10,07,08,22,25.70
2008,10,07,08,23,33.80
2008,10,07,08,24,30.60
2008,10,07,08,25,25.70
2008,10,07,08,26,27.40
2008,10,07,08,27,29.00
2008,10,07,08,28,33.80
2008,10,07,08,29,27.40
2008,10,07,08,30,24.20
2008,10,07,08,31,29.00
2008,10,07,08,32,20.90
2008,10,07,08,33,32.20
2008,10,07,08,34,29.00
2008,10,07,08,35,25.70
2008,10,07,08,36,38.60
2008,10,07,08,37,35.40
2008,10,07,08,38,45.10
2008,10,07,08,39,37.00
2008,10,07,08,40,48.30
2008,10,07,08,41,37.00
2008,10,07,08,42,45.10
2008,10,07,08,43,49.90
2008,10,07,08,44,37.00
2008,10,07,08,45,45.10
2008,10,07,08,46,35.40
2008,10,07,08,47,41.80
2008,10,07,08,48,45.10
2008,10,07,08,49,45.10
2008,10,07,08,50,45.10
2008,10,07,08,51,33.80
2008,10,07,08,52,37.00
2008,10,07,08,53,35.40
2008,10,07,08,54,29.00
2008,10,07,08,55,48.30
2008,10,07,08,56,33.80
2008,10,07,08,57,45.10
2008,10,07,08,58,32.20
2008,10,07,08,59,33.80
2008,10,07,09,00,35.40
2008,10,07,09,01,32.20
2008,10,07,09,02,35.40
2008,10,07,09,03,35.40
2008,10,07,09,04,25.70
2008,10,07,09,05,38.60
2008,10,07,09,06,40.20
2008,10,07,09,07,40.20
2008,10,07,09,08,41.80
2008,10,07,09,09,38.60
2008,10,07,09,10,40.20
2008,10,07,09,11,37.00
2008,10,07,09,12,35.40
2008,10,07,09,13,37.00
2008,10,07,09,14,41.80
2008,10,07,09,15,32.20
2008,10,07,09,16,35.40
2008,10,07,09,17,41.80
2008,10,07,09,18,32.20
2008,10,07,09,19,33.80
2008,10,07,09,20,33.80
2008,10,07,09,21,35.40
2008,10,07,09,22,25.70
2008,10,07,09,23,37.00
2008,10,07,09,24,40.20
2008,10,07,09,25,32.20
2008,10,07,09,26,37.00
2008,10,07,09,27,41.80
2008,10,07,09,28,35.40
2008,10,07,09,29,41.80
2008,10,07,09,30,33.80
2008,10,07,09,31,24.20
2008,10,07,09,32,37.00
2008,10,07,09,33,33.80
2008,10,07,09,34,40.20
2008,10,07,09,35,35.40
2008,10,07,09,36,38.60
2008,10,07,09,37,38.60
2008,10,07,09,38,33.80
2008,10,07,09,39,35.40
2008,10,07,09,40,35.40
2008,10,07,09,41,35.40
2008,10,07,09,42,38.60
2008,10,07,09,43,43.50
2008,10,07,09,44,38.60
2008,10,07,09,45,38.60
2008,10,07,09,46,33.80
2008,10,07,09,47,37.00
2008,10,07,09,48,43.50
2008,10,07,09,49,49.90
2008,10,07,09,50,43.50
2008,10,07,09,51,51.50
2008,10,07,09,52,43.50
2008,10,07,09,53,41.80
2008,10,07,09,54,49.90
2008,10,07,09,55,49.90
2008,10,07,09,56,53.10
2008,10,07,09,57,46.70
2008,10,07,09,58,41.80
2008,10,07,09,59,41.80
2008,10,07,10,00,48.30
2008,10,07,10,01,37.00
2008,10,07,10,02,40.20
2008,10,07,10,03,38.60
2008,10,07,10,04,33.80
2008,10,07,10,05,25.70
2008,10,07,10,06,37.00
2008,10,07,10,07,38.60
2008,10,07,10,08,46.70
2008,10,07,10,09,46.70
2008,10,07,10,10,43.50
2008,10,07,10,11,40.20
2008,10,07,10,12,38.60
2008,10,07,10,13,43.50
2008,10,07,10,14,46.70
2008,10,07,10,15,41.80
2008,10,07,10,16,40.20
2008,10,07,10,17,45.10
2008,10,07,10,18,37.00
2008,10,07,10,19,38.60
2008,10,07,10,20,43.50
2008,10,07,10,21,41.80
2008,10,07,10,22,38.60
2008,10,07,10,23,35.40
2008,10,07,10,24,38.60
2008,10,07,10,25,29.00
2008,10,07,10,26,48.30
2008,10,07,10,27,48.30
2008,10,07,10,28,43.50
2008,10,07,10,29,40.20
2008,10,07,10,30,37.00
2008,10,07,10,31,33.80
2008,10,07,10,32,40.20
2008,10,07,10,33,43.50
2008,10,07,10,34,48.30
2008,10,07,10,35,45.10
2008,10,07,10,36,45.10
2008,10,07,10,37,51.50
2008,10,07,10,38,46.70
2008,10,07,10,39,54.70
2008,10,07,10,40,45.10
2008,10,07,10,41,41.80
2008,10,07,10,42,43.50
2008,10,07,10,43,32.20
2008,10,07,10,44,43.50
2008,10,07,10,45,49.90
2008,10,07,10,46,41.80
2008,10,07,10,47,40.20
2008,10,07,10,48,51.50
2008,10,07,10,49,46.70
2008,10,07,10,50,35.40
2008,10,07,10,51,38.60
2008,10,07,10,52,41.80
2008,10,07,10,53,43.50
2008,10,07,10,54,45.10
2008,10,07,10,55,46.70
2008,10,07,10,56,38.60
2008,10,07,10,57,38.60
2008,10,07,10,58,33.80
2008,10,07,10,59,46.70
2008,10,07,11,00,48.30
2008,10,07,11,01,43.50
2008,10,07,11,02,37.00
2008,10,07,11,03,35.40
2008,10,07,11,04,46.70
2008,10,07,11,05,46.70
2008,10,07,11,06,56.30
2008,10,07,11,07,43.50
2008,10,07,11,08,37.00
2008,10,07,11,09,35.40
2008,10,07,11,10,40.20
2008,10,07,11,11,49.90
2008,10,07,11,12,45.10
2008,10,07,11,13,51.50
2008,10,07,11,14,32.20
2008,10,07,11,15,33.80
2008,10,07,11,16,32.20
2008,10,07,11,17,48.30
2008,10,07,11,18,48.30
2008,10,07,11,19,43.50
2008,10,07,11,20,46.70
2008,10,07,11,21,38.60
2008,10,07,11,22,49.90
2008,10,07,11,23,40.20
2008,10,07,11,24,40.20
2008,10,07,11,25,46.70
2008,10,07,11,26,40.20
2008,10,07,11,27,35.40
2008,10,07,11,28,41.80
2008,10,07,11,29,57.90
2008,10,07,11,30,43.50
2008,10,07,11,31,45.10
2008,10,07,11,32,43.50
2008,10,07,11,33,49.90
2008,10,07,11,34,38.60
2008,10,07,11,35,37.00
2008,10,07,11,36,53.10
2008,10,07,11,37,38.60
2008,10,07,11,38,41.80
2008,10,07,11,39,38.60
2008,10,07,11,40,45.10
2008,10,07,11,41,49.90
2008,10,07,11,42,41.80
2008,10,07,11,43,41.80
2008,10,07,11,44,49.90
2008,10,07,11,45,53.10
2008,10,07,11,46,45.10
2008,10,07,11,47,41.80
2008,10,07,11,48,41.80
2008,10,07,11,49,38.60
2008,10,07,11,50,33.80
2008,10,07,11,51,49.90
2008,10,07,11,52,46.70
2008,10,07,11,53,45.10
2008,10,07,11,54,37.00
2008,10,07,11,55,37.00
2008,10,07,11,56,41.80
2008,10,07,11,57,41.80
2008,10,07,11,58,45.10
2008,10,07,11,59,53.10
2008,10,07,12,00,49.90
2008,10,07,12,01,45.10
2008,10,07,12,02,51.50
2008,10,07,12,03,45.10
2008,10,07,12,04,35.40
2008,10,07,12,05,53.10
2008,10,07,12,06,41.80
2008,10,07,12,07,41.80
2008,10,07,12,08,45.10
2008,10,07,12,09,51.50
2008,10,07,12,10,51.50
2008,10,07,12,11,48.30
2008,10,07,12,12,45.10
2008,10,07,12,13,43.50
2008,10,07,12,14,43.50
2008,10,07,12,15,45.10
2008,10,07,12,16,32.20
2008,10,07,12,17,38.60
2008,10,07,12,18,40.20
2008,10,07,12,19,49.90
2008,10,07,12,20,37.00
2008,10,07,12,21,43.50
2008,10,07,12,22,45.10
2008,10,07,12,23,38.60
2008,10,07,12,24,40.20
2008,10,07,12,25,35.40
2008,10,07,12,26,35.40
2008,10,07,12,27,45.10
2008,10,07,12,28,43.50
2008,10,07,12,29,30.60
2008,10,07,12,30,40.20
2008,10,07,12,31,53.10
2008,10,07,12,32,53.10
2008,10,07,12,33,48.30
2008,10,07,12,34,40.20
2008,10,07,12,35,41.80
2008,10,07,12,36,45.10
2008,10,07,12,37,37.00
2008,10,07,12,38,43.50
2008,10,07,12,39,43.50
2008,10,07,12,40,41.80
2008,10,07,12,41,48.30
2008,10,07,12,42,37.00
2008,10,07,12,43,51.50
2008,10,07,12,44,51.50
2008,10,07,12,45,40.20
2008,10,07,12,46,41.80
2008,10,07,12,47,30.60
2008,10,07,12,48,33.80
2008,10,07,12,49,43.50
2008,10,07,12,50,43.50
2008,10,07,12,51,37.00
2008,10,07,12,52,40.20
2008,10,07,12,53,56.30
2008,10,07,12,54,33.80
2008,10,07,12,55,38.60
2008,10,07,12,56,41.80
2008,10,07,12,57,35.40
2008,10,07,12,58,32.20
2008,10,07,12,59,41.80
2008,10,07,13,00,43.50
2008,10,07,13,01,35.40
2008,10,07,13,02,35.40
2008,10,07,13,03,33.80
2008,10,07,13,04,37.00
2008,10,07,13,05,49.90
2008,10,07,13,06,40.20
2008,10,07,13,07,53.10
2008,10,07,13,08,53.10
2008,10,07,13,09,35.40
2008,10,07,13,10,30.60
2008,10,07,13,11,30.60
2008,10,07,13,12,32.20
2008,10,07,13,13,46.70
2008,10,07,13,14,33.80
2008,10,07,13,15,51.50
2008,10,07,13,16,54.70
2008,10,07,13,17,46.70
2008,10,07,13,18,48.30
2008,10,07,13,19,41.80
2008,10,07,13,20,40.20
2008,10,07,13,21,53.10
2008,10,07,13,22,46.70
2008,10,07,13,23,40.20
2008,10,07,13,24,38.60
2008,10,07,13,25,45.10
2008,10,07,13,26,43.50
2008,10,07,13,27,41.80
2008,10,07,13,28,35.40
2008,10,07,13,29,43.50
2008,10,07,13,30,41.80
2008,10,07,13,31,37.00
2008,10,07,13,32,54.70
2008,10,07,13,33,53.10
2008,10,07,13,34,33.80
2008,10,07,13,35,35.40
2008,10,07,13,36,35.40
2008,10,07,13,37,37.00
2008,10,07,13,38,38.60
2008,10,07,13,39,41.80
2008,10,07,13,40,43.50
2008,10,07,13,41,38.60
2008,10,07,13,42,41.80
2008,10,07,13,43,48.30
2008,10,07,13,44,49.90
2008,10,07,13,45,45.10
2008,10,07,13,46,46.70
2008,10,07,13,47,45.10
2008,10,07,13,48,37.00
2008,10,07,13,49,40.20
2008,10,07,13,50,38.60
2008,10,07,13,51,40.20
2008,10,07,13,52,46.70
2008,10,07,13,53,33.80
2008,10,07,13,54,33.80
2008,10,07,13,55,22.50
2008,10,07,13,56,35.40
2008,10,07,13,57,40.20
2008,10,07,13,58,37.00
2008,10,07,13,59,29.00
2008,10,07,14,00,35.40
2008,10,07,14,01,37.00
2008,10,07,14,02,30.60
2008,10,07,14,03,32.20
2008,10,07,14,04,35.40
2008,10,07,14,05,32.20
2008,10,07,14,06,27.40
2008,10,07,14,07,37.00
2008,10,07,14,08,35.40
2008,10,07,14,09,30.60
2008,10,07,14,10,33.80
2008,10,07,14,11,33.80
2008,10,07,14,12,25.70
2008,10,07,14,13,38.60
2008,10,07,14,14,53.10
2008,10,07,14,15,35.40
2008,10,07,14,16,43.50
2008,10,07,14,17,38.60
2008,10,07,14,18,35.40
2008,10,07,14,19,38.60
2008,10,07,14,20,37.00
2008,10,07,14,21,40.20
2008,10,07,14,22,35.40
2008,10,07,14,23,35.40
2008,10,07,14,24,37.00
2008,10,07,14,25,32.20
2008,10,07,14,26,30.60
2008,10,07,14,27,38.60
2008,10,07,14,28,37.00
2008,10,07,14,29,30.60
2008,10,07,14,30,37.00
2008,10,07,14,31,37.00
2008,10,07,14,32,48.30
2008,10,07,14,33,33.80
2008,10,07,14,34,40.20
2008,10,07,14,35,40.20
2008,10,07,14,36,43.50
2008,10,07,14,37,35.40
2008,10,07,14,38,48.30
2008,10,07,14,39,45.10
2008,10,07,14,40,49.90
2008,10,07,14,41,49.90
2008,10,07,14,42,46.70
2008,10,07,14,43,46.70
2008,10,07,14,44,38.60
2008,10,07,14,45,45.10
2008,10,07,14,46,43.50
2008,10,07,14,47,43.50
2008,10,07,14,48,33.80
2008,10,07,14,49,30.60
2008,10,07,14,50,30.60
2008,10,07,14,51,35.40
2008,10,07,14,52,24.20
2008,10,07,14,53,32.20
2008,10,07,14,54,30.60
2008,10,07,14,55,25.70
2008,10,07,14,56,27.40
2008,10,07,14,57,29.00
2008,10,07,14,58,24.20
2008,10,07,14,59,33.80
2008,10,07,15,00,30.60
2008,10,07,15,01,27.40
2008,10,07,15,02,24.20
2008,10,07,15,03,24.20
2008,10,07,15,04,24.20
2008,10,07,15,05,29.00
2008,10,07,15,06,27.40
2008,10,07,15,07,30.60
2008,10,07,15,08,24.20
2008,10,07,15,09,27.40
2008,10,07,15,10,25.70
2008,10,07,15,11,30.60
2008,10,07,15,12,37.00
2008,10,07,15,13,30.60
2008,10,07,15,14,33.80
2008,10,07,15,15,35.40
2008,10,07,15,16,32.20
2008,10,07,15,17,24.20
2008,10,07,15,18,19.30
2008,10,07,15,19,32.20
2008,10,07,15,20,35.40
2008,10,07,15,21,20.90
2008,10,07,15,22,29.00
2008,10,07,15,23,30.60
2008,10,07,15,24,33.80
2008,10,07,15,25,24.20
2008,10,07,15,26,20.90
2008,10,07,15,27,27.40
2008,10,07,15,28,27.40
2008,10,07,15,29,20.90
2008,10,07,15,30,20.90
2008,10,07,15,31,25.70
2008,10,07,15,32,24.20
2008,10,07,15,33,29.00
2008,10,07,15,34,20.90
2008,10,07,15,35,19.30
2008,10,07,15,36,33.80
2008,10,07,15,37,30.60
2008,10,07,15,38,25.70
2008,10,07,15,39,25.70
2008,10,07,15,40,19.30
2008,10,07,15,41,35.40
2008,10,07,15,42,29.00
2008,10,07,15,43,35.40
2008,10,07,15,44,27.40
2008,10,07,15,45,32.20
2008,10,07,15,46,32.20
2008,10,07,15,47,22.50
2008,10,07,15,48,25.70
2008,10,07,15,49,32.20
2008,10,07,15,50,35.40
2008,10,07,15,51,30.60
2008,10,07,15,52,24.20
2008,10,07,15,53,24.20
2008,10,07,15,54,19.30
2008,10,07,15,55,20.90
2008,10,07,15,56,24.20
2008,10,07,15,57,29.00
2008,10,07,15,58,30.60
2008,10,07,15,59,30.60
2008,10,07,16,00,19.30
2008,10,07,16,01,20.90
2008,10,07,16,02,20.90
2008,10,07,16,03,25.70
2008,10,07,16,04,25.70
2008,10,07,16,05,17.70
2008,10,07,16,06,16.10
2008,10,07,16,07,24.20
2008,10,07,16,08,19.30
2008,10,07,16,09,17.70
2008,10,07,16,10,30.60
2008,10,07,16,11,27.40
2008,10,07,16,12,25.70
2008,10,07,16,13,32.20
2008,10,07,16,14,38.60
2008,10,07,16,15,32.20
2008,10,07,16,16,38.60
2008,10,07,16,17,45.10
2008,10,07,16,18,29.00
2008,10,07,16,19,32.20
2008,10,07,16,20,19.30
2008,10,07,16,21,25.70
2008,10,07,16,22,33.80
2008,10,07,16,23,30.60
2008,10,07,16,24,25.70
2008,10,07,16,25,22.50
2008,10,07,16,26,24.20
2008,10,07,16,27,35.40
2008,10,07,16,28,30.60
2008,10,07,16,29,38.60
2008,10,07,16,30,27.40
2008,10,07,16,31,24.20
2008,10,07,16,32,25.70
2008,10,07,16,33,30.60
2008,10,07,16,34,25.70
2008,10,07,16,35,37.00
2008,10,07,16,36,29.00
2008,10,07,16,37,29.00
2008,10,07,16,38,29.00
2008,10,07,16,39,30.60
2008,10,07,16,40,33.80
2008,10,07,16,41,32.20
2008,10,07,16,42,32.20
2008,10,07,16,43,30.60
2008,10,07,16,44,25.70
2008,10,07,16,45,32.20
2008,10,07,16,46,27.40
2008,10,07,16,47,35.40
2008,10,07,16,48,35.40
2008,10,07,16,49,43.50
2008,10,07,16,50,41.80
2008,10,07,16,51,25.70
2008,10,07,16,52,27.40
2008,10,07,16,53,27.40
2008,10,07,16,54,22.50
2008,10,07,16,55,25.70
2008,10,07,16,56,43.50
2008,10,07,16,57,38.60
2008,10,07,16,58,29.00
2008,10,07,16,59,30.60
2008,10,07,17,00,37.00
2008,10,07,17,01,33.80
2008,10,07,17,02,27.40
2008,10,07,17,03,35.40
2008,10,07,17,04,35.40
2008,10,07,17,05,32.20
2008,10,07,17,06,29.00
2008,10,07,17,07,33.80
2008,10,07,17,08,29.00
2008,10,07,17,09,41.80
2008,10,07,17,10,30.60
2008,10,07,17,11,25.70
2008,10,07,17,12,37.00
2008,10,07,17,13,30.60
2008,10,07,17,14,32.20
2008,10,07,17,15,29.00
2008,10,07,17,16,27.40
2008,10,07,17,17,27.40
2008,10,07,17,18,30.60
2008,10,07,17,19,32.20